Weather in Helena

United States     46°35′23″N   112°01′13″W
temp.,
°C
wind,
m/s
gust,
m/s
humid.,
%
clouds,
%
prec.,
mm/h
press.,
hPa
HPBL,
m
25 may, wed
wed2500:00+7ssw2246100 0.0 101436
03:00+8ssw2342100 0.0 101369
06:00+8sw2649100 0.0 1013443
09:00+11sw3950100 0.0 10121152
12:00+15wsw51142100 0.0 10121886
15:00+18wnw51032100 0.0 10102521
18:00+19nw7113271 0.0 10082586
21:00+11sw1163100 0.0 101111
26 may, thu
thu2600:00+9ssw3268100 0.0 101332
03:00+9sw2267100 0.0 101331
06:00+8sw2272100 0.0 101422
09:00+16w2542100 0.0 10121034
12:00+21nw2721100 0.0 10092249
15:00+24nnw2717100 0.0 10063270
18:00+22ne3323100 0.0 10051194
21:00+16s2240100 0.0 100624
27 may, fri
fri2700:00+13ssw2354100 0.0 100741
03:00+12s2369100 0.1 100555
06:00+11sw3477100 0.3 100687
09:00+13wnw2670100 0.6 1007693
12:00+14w365573 0.8 10081019
15:00+19wnw5834100 0.3 10052272
18:00+16w5743100 0.3 10041378
21:00+12wnw2454100 0.1 1006143
28 may, sat
sat2800:00+8sw2268100 0.1 100622
03:00+8wsw227081 0.0 100426
06:00+8wsw1171100 0.0 100351
09:00+10nw1266100 0.1 1002736
12:00+9nw1270100 0.4 1001653
15:00+13e135863 0.6 10001090
18:00+13ne2255100 1.0 9961028
21:00+10ssw2377100 1.1 99655
29 may, sun
sun2900:00+8ne0190100 2.5 99745
03:00+7ese1295100 6.4 997339
06:00+6w1194100 11.3 997440
09:00+6n2293100 0.5 998393
12:00+5nw1193100 2.0 1000293
15:00+5wnw2388100 0.4 1002441
18:00+5nnw3591100 0.7 10041001
21:00+3nnw2698100 2.1 1007629